2020-085AB

Last updated on Thu Dec 10 2020 00:02:03 GMT+0000 (Coordinated Universal Time)

1 46954U 20085AB 20344.33297634 .00071163 00000-0 30283-2 0 9999 2 46954 97.3632 118.5561 0014736 261.3731 98.5651 15.22620379 2914

Satellite not in orbit